Volver al catálogo

COSMOS 1158

ActivoMilitarLEO
NORAD 11693·PAYLOAD·🇷🇺 Russia

Lanzado Feb 11, 1980 desde Plesetsk Cosmodrome

Loading…

Próximos Pases (próximas 24 horas)

TLE

ActualizadoSource: Space-Track

Época: Sep 14, 2026, 13:36 UTC

1 11693U 80012C   26257.56730698 -.00000011  00000-0  29784-4 0  9994
2 11693  74.0184 103.5763 0027488  13.4759  14.3582 12.52382862129913

Sigue COSMOS 1158 en tiempo real con AllMySat

Download on the App Store